When you browse on this site, cookies collect data to enhance your experience and personalize the content and advertising you see.
Visit our Privacy Policy to learn more. By continuing to use the site, you agree to this use of cookies and data.
  • En España
  • Lista de países
  • Para 7 días
  • Temperatura del agua
  • El tiempo en el mapa
  • Informadores
  • user-avatar
    Iniciar sesión

    Tiempo cada hora Kankan

    Hoy, 25 Febrero, Martes

    Tiempo Temperatura Precipitaciones Viento Presión Humedad
    00:00 +19°C° 0 mm 1 mps 684 mmHg 28%
    01:00 +18°C° 0 mm 1 mps 684 mmHg 32%
    02:00 +16°C° 0 mm 1 mps 684 mmHg 34%
    03:00 +15°C° 0 mm 1 mps 683 mmHg 35%
    04:00 +14°C° 0 mm 1 mps 683 mmHg 37%
    05:00 +14°C° 0 mm 1 mps 683 mmHg 37%
    06:00 +14°C° 0 mm 1 mps 684 mmHg 37%
    07:00 +14°C° 0 mm 1 mps 684 mmHg 35%
    08:00 +17°C° 0 mm 2 mps 685 mmHg 30%
    09:00 +20°C° 0 mm 3 mps 686 mmHg 25%
    10:00 +23°C° 0 mm 4 mps 687 mmHg 20%
    11:00 +26°C° 0 mm 4 mps 687 mmHg 17%
    12:00 +29°C° 0 mm 4 mps 686 mmHg 15%
    13:00 +32°C° 0 mm 4 mps 686 mmHg 13%
    14:00 +33°C° 0 mm 3 mps 685 mmHg 12%
    15:00 +33°C° 0 mm 3 mps 685 mmHg 12%
    16:00 +34°C° 0 mm 3 mps 684 mmHg 11%
    17:00 +30°C° 0 mm 2 mps 684 mmHg 13%
    18:00 +28°C° 0 mm 2 mps 683 mmHg 15%
    19:00 +25°C° 0 mm 2 mps 683 mmHg 18%
    20:00 +24°C° 0 mm 2 mps 683 mmHg 19%
    21:00 +22°C° 0 mm 1 mps 684 mmHg 20%
    22:00 +21°C° 0 mm 1 mps 684 mmHg 22%
    23:00 +20°C° 0 mm 1 mps 684 mmHg 23%

    Mañana, 26 Febrero, Miércoles

    Tiempo Temperatura Precipitaciones Viento Presión Humedad
    00:00 +19°C° 0 mm 1 mps 684 mmHg 23%
    01:00 +18°C° 0 mm 1 mps 684 mmHg 24%
    02:00 +18°C° 0 mm 1 mps 683 mmHg 26%
    03:00 +16°C° 0 mm 1 mps 683 mmHg 28%
    04:00 +15°C° 0 mm 1 mps 682 mmHg 29%
    05:00 +15°C° 0 mm 1 mps 683 mmHg 30%
    06:00 +15°C° 0 mm 1 mps 683 mmHg 31%
    07:00 +15°C° 0 mm 1 mps 683 mmHg 32%
    08:00 +20°C° 0 mm 1 mps 685 mmHg 26%
    09:00 +23°C° 0 mm 2 mps 686 mmHg 20%
    10:00 +27°C° 0 mm 2 mps 687 mmHg 14%
    11:00 +30°C° 0 mm 2 mps 686 mmHg 13%
    12:00 +32°C° 0 mm 2 mps 686 mmHg 12%
    13:00 +36°C° 0 mm 2 mps 686 mmHg 10%
    14:00 +36°C° 0 mm 2 mps 685 mmHg 10%
    15:00 +36°C° 0 mm 2 mps 684 mmHg 10%
    16:00 +37°C° 0 mm 2 mps 684 mmHg 10%
    17:00 +34°C° 0 mm 2 mps 684 mmHg 12%
    18:00 +30°C° 0 mm 1 mps 683 mmHg 14%
    19:00 +28°C° 0 mm 1 mps 683 mmHg 16%
    20:00 +26°C° 0 mm 1 mps 683 mmHg 18%
    21:00 +25°C° 0 mm 1 mps 683 mmHg 19%
    22:00 +24°C° 0 mm 1 mps 684 mmHg 21%
    23:00 +21°C° 0 mm 0 mps 684 mmHg 22%

    Pasado mañana, 27 Febrero, Jueves

    Tiempo Temperatura Precipitaciones Viento Presión Humedad
    00:00 +20°C° 0 mm 0 mps 684 mmHg 23%
    01:00 +20°C° 0 mm 0 mps 683 mmHg 23%
    02:00 +19°C° 0 mm 0 mps 683 mmHg 24%
    03:00 +19°C° 0 mm 0 mps 683 mmHg 25%
    04:00 +18°C° 0 mm 0 mps 682 mmHg 26%
    05:00 +18°C° 0 mm 0 mps 683 mmHg 26%
    06:00 +18°C° 0 mm 0 mps 683 mmHg 27%
    07:00 +18°C° 0 mm 0 mps 684 mmHg 27%
    08:00 +24°C° 0 mm 1 mps 685 mmHg 23%
    09:00 +27°C° 0 mm 1 mps 686 mmHg 19%
    10:00 +31°C° 0 mm 2 mps 688 mmHg 15%
    11:00 +34°C° 0 mm 2 mps 687 mmHg 13%
    12:00 +35°C° 0 mm 2 mps 687 mmHg 12%
    13:00 +37°C° 0 mm 3 mps 686 mmHg 10%
    14:00 +37°C° 0 mm 3 mps 685 mmHg 10%
    15:00 +37°C° 0 mm 2 mps 685 mmHg 10%
    16:00 +38°C° 0 mm 2 mps 684 mmHg 10%
    17:00 +35°C° 0 mm 2 mps 684 mmHg 12%
    18:00 +32°C° 0 mm 2 mps 684 mmHg 14%
    19:00 +29°C° 0 mm 1 mps 684 mmHg 16%
    20:00 +27°C° 0 mm 1 mps 684 mmHg 17%
    21:00 +26°C° 0 mm 1 mps 684 mmHg 18%
    22:00 +22°C° 0 mm 0 mps 684 mmHg 20%
    23:00 +22°C° 0 mm 0 mps 684 mmHg 20%

    28 Febrero, Viernes

    Tiempo Temperatura Precipitaciones Viento Presión Humedad
    00:00 +24°C° 0 mm 1 mps 684 mmHg 21%
    01:00 +23°C° 0 mm 1 mps 684 mmHg 21%
    02:00 +23°C° 0 mm 1 mps 683 mmHg 22%
    03:00 +20°C° 0 mm 0 mps 683 mmHg 22%
    04:00 +20°C° 0 mm 0 mps 683 mmHg 23%
    05:00 +20°C° 0 mm 0 mps 683 mmHg 23%
    06:00 +20°C° 0 mm 0 mps 684 mmHg 23%
    07:00 +20°C° 0 mm 0 mps 684 mmHg 24%
    08:00 +25°C° 0 mm 1 mps 685 mmHg 20%
    09:00 +29°C° 0 mm 2 mps 687 mmHg 16%
    10:00 +32°C° 0 mm 2 mps 688 mmHg 12%
    11:00 +34°C° 0 mm 3 mps 687 mmHg 11%
    12:00 +36°C° 0 mm 3 mps 686 mmHg 10%
    13:00 +37°C° 0 mm 3 mps 686 mmHg 10%
    14:00 +37°C° 0 mm 3 mps 685 mmHg 9%
    15:00 +38°C° 0 mm 3 mps 685 mmHg 9%
    16:00 +38°C° 0 mm 2 mps 684 mmHg 9%
    17:00 +36°C° 0 mm 2 mps 684 mmHg 10%
    18:00 +32°C° 0 mm 2 mps 684 mmHg 12%
    19:00 +30°C° 0 mm 2 mps 684 mmHg 14%
    20:00 +28°C° 0 mm 1 mps 684 mmHg 15%
    21:00 +26°C° 0 mm 1 mps 684 mmHg 16%
    22:00 +25°C° 0 mm 1 mps 684 mmHg 18%
    23:00 +24°C° 0 mm 1 mps 684 mmHg 18%

    29 Febrero, Sábado

    Tiempo Temperatura Precipitaciones Viento Presión Humedad
    00:00 +22°C° 0 mm 0 mps 684 mmHg 18%
    01:00 +21°C° 0 mm 0 mps 684 mmHg 19%
    02:00 +21°C° 0 mm 0 mps 683 mmHg 19%
    03:00 +20°C° 0 mm 0 mps 683 mmHg 20%
    04:00 +20°C° 0 mm 0 mps 683 mmHg 20%
    05:00 +20°C° 0 mm 0 mps 683 mmHg 20%
    06:00 +20°C° 0 mm 0 mps 683 mmHg 20%
    07:00 +19°C° 0 mm 0 mps 684 mmHg 20%
    08:00 +25°C° 0 mm 1 mps 685 mmHg 16%
    09:00 +29°C° 0 mm 2 mps 686 mmHg 13%
    10:00 +33°C° 0 mm 3 mps 687 mmHg 9%
    11:00 +35°C° 0 mm 3 mps 686 mmHg 9%
    12:00 +37°C° 0 mm 3 mps 686 mmHg 8%
    13:00 +38°C° 0 mm 3 mps 686 mmHg 7%
    14:00 +39°C° 0 mm 3 mps 685 mmHg 8%
    15:00 +39°C° 0 mm 3 mps 684 mmHg 8%
    16:00 +39°C° 0 mm 2 mps 683 mmHg 8%
    17:00 +36°C° 0 mm 2 mps 683 mmHg 9%
    18:00 +34°C° 0 mm 2 mps 683 mmHg 11%
    19:00 +30°C° 0 mm 2 mps 683 mmHg 12%
    20:00 +28°C° 0 mm 2 mps 683 mmHg 14%
    21:00 +27°C° 0 mm 1 mps 683 mmHg 15%
    22:00 +25°C° 0 mm 1 mps 683 mmHg 16%
    23:00 +25°C° 0 mm 1 mps 683 mmHg 17%

    1 Marzo, Domingo

    Tiempo Temperatura Precipitaciones Viento Presión Humedad
    00:00 +24°C° 0 mm 1 mps 683 mmHg 17%
    01:00 +21°C° 0 mm 0 mps 683 mmHg 18%
    02:00 +21°C° 0 mm 0 mps 683 mmHg 18%
    03:00 +20°C° 0 mm 0 mps 682 mmHg 18%
    04:00 +19°C° 0 mm 0 mps 682 mmHg 19%
    05:00 +21°C° 0 mm 1 mps 683 mmHg 18%
    06:00 +21°C° 0 mm 1 mps 683 mmHg 18%
    07:00 +21°C° 0 mm 1 mps 683 mmHg 18%
    08:00 +25°C° 0 mm 1 mps 685 mmHg 15%
    09:00 +29°C° 0 mm 2 mps 686 mmHg 11%
    10:00 +33°C° 0 mm 3 mps 687 mmHg 8%
    11:00 +35°C° 0 mm 3 mps 687 mmHg 8%
    12:00 +37°C° 0 mm 3 mps 686 mmHg 7%
    13:00 +38°C° 0 mm 3 mps 686 mmHg 7%
    14:00 +38°C° 0 mm 3 mps 685 mmHg 7%
    15:00 +38°C° 0 mm 3 mps 684 mmHg 7%
    16:00 +38°C° 0 mm 2 mps 683 mmHg 7%
    17:00 +36°C° 0 mm 2 mps 683 mmHg 9%
    18:00 +32°C° 0 mm 2 mps 683 mmHg 11%
    19:00 +29°C° 0 mm 1 mps 683 mmHg 12%
    20:00 +28°C° 0 mm 1 mps 683 mmHg 14%
    21:00 +26°C° 0 mm 1 mps 683 mmHg 15%
    22:00 +23°C° 0 mm 0 mps 684 mmHg 16%
    23:00 +24°C° 0 mm 1 mps 684 mmHg 17%
    Mostrar más